| time (UTC) | temp F | wind direction | speed knots | gust knots | rain 1hr in | rain 24hr in | rain mn in | humidity % | barometer mb |
| 20260507115022 | 58 | 185 | 15.6 | 24.3 | 0.00 | 0.00 | 0.00 | 85 | 1009.8 |
| 20260507114514 | 58 | 120 | 12.2 | 20.9 | 0.00 | 0.00 | 0.00 | 85 | 1009.9 |
| 20260507114022 | 58 | 122 | 13.0 | 26.1 | 0.00 | 0.00 | 0.00 | 84 | 1009.9 |
| 20260507113023 | 58 | 95 | 11.3 | 18.2 | 0.00 | 0.00 | 0.00 | 84 | 1009.8 |
| 20260507110515 | 58 | 101 | 12.2 | 21.7 | 0.00 | 0.00 | 0.00 | 83 | 1010.1 |
| 20260507110015 | 58 | 110 | 13.0 | 27.8 | 0.00 | 0.00 | 0.00 | 83 | 1010.2 |
| 20260507105022 | 59 | 67 | 11.3 | 20.9 | 0.00 | 0.00 | 0.00 | 83 | 1010.3 |
| 20260507104514 | 59 | 80 | 12.2 | 22.6 | 0.00 | 0.00 | 0.00 | 82 | 1010.1 |
| 20260507103514 | 59 | 24 | 13.0 | 20.9 | 0.00 | 0.00 | 0.00 | 81 | 1010.3 |
| 20260507103027 | 59 | 91 | 13.0 | 24.3 | 0.00 | 0.00 | 0.00 | 81 | 1010.4 |
| 20260507102514 | 59 | 70 | 13.0 | 21.7 | 0.00 | 0.00 | 0.00 | 82 | 1010.5 |
| 20260507100514 | 60 | 105 | 13.9 | 21.7 | 0.00 | 0.00 | 0.00 | 80 | 1010.6 |
| 20260507100014 | 60 | 52 | 14.8 | 24.3 | 0.00 | 0.00 | 0.00 | 80 | 1010.6 |
| 20260507095021 | 60 | 106 | 15.6 | 25.2 | 0.00 | 0.00 | 0.00 | 79 | 1010.7 |
| 20260507093023 | 60 | 55 | 12.2 | 22.6 | 0.00 | 0.00 | 0.00 | 79 | 1010.8 |
| 20260507091513 | 60 | 76 | 13.9 | 20.9 | 0.00 | 0.00 | 0.00 | 80 | 1011.1 |
| 20260507091021 | 60 | 102 | 12.2 | 24.3 | 0.00 | 0.00 | 0.00 | 80 | 1011.0 |
| 20260507085022 | 60 | 83 | 13.9 | 22.6 | 0.00 | 0.00 | 0.00 | 81 | 1010.9 |
| 20260507083513 | 59 | 45 | 11.3 | 18.2 | 0.00 | 0.00 | 0.00 | 82 | 1011.1 |
| 20260507082515 | 60 | 95 | 13.0 | 26.1 | 0.00 | 0.00 | 0.00 | 80 | 1010.9 |
| 20260507081513 | 60 | 90 | 13.9 | 22.6 | 0.00 | 0.00 | 0.00 | 81 | 1010.7 |
| 20260507081021 | 60 | 95 | 13.9 | 22.6 | 0.00 | 0.00 | 0.00 | 81 | 1010.6 |
| 20260507080016 | 59 | 97 | 13.9 | 22.6 | 0.00 | 0.00 | 0.00 | 82 | 1010.5 |
| 20260507075022 | 59 | 117 | 11.3 | 25.2 | 0.00 | 0.00 | 0.00 | 83 | 1010.4 |
| 20260507074021 | 59 | 96 | 12.2 | 21.7 | 0.00 | 0.00 | 0.00 | 83 | 1010.5 |
| 20260507065514 | 57 | 49 | 11.3 | 22.6 | 0.00 | 0.00 | 0.00 | 88 | 1011.1 |
| 20260507064513 | 57 | 71 | 13.0 | 24.3 | 0.00 | 0.00 | 0.00 | 90 | 1011.1 |
| 20260507063513 | 57 | 108 | 12.2 | 18.2 | 0.00 | 0.00 | 0.00 | 92 | 1011.2 |
| 20260507063021 | 56 | 73 | 11.3 | 22.6 | 0.00 | 0.00 | 0.00 | 92 | 1011.3 |
| 20260507062513 | 56 | 108 | 12.2 | 18.2 | 0.00 | 0.00 | 0.00 | 92 | 1011.2 |
| 20260507060515 | 56 | 108 | 10.4 | 17.4 | 0.00 | 0.00 | 0.00 | 93 | 1010.9 |
| 20260507060014 | 56 | 97 | 9.6 | 22.6 | 0.00 | 0.00 | 0.00 | 93 | 1011.0 |
| 20260507055514 | 56 | 98 | 12.2 | 24.3 | 0.00 | 0.00 | 0.00 | 93 | 1010.9 |
| 20260507055021 | 56 | 83 | 11.3 | 18.2 | 0.00 | 0.00 | 0.00 | 94 | 1011.0 |
| 20260507054513 | 56 | 88 | 11.3 | 20.9 | 0.00 | 0.00 | 0.00 | 93 | 1011.3 |
| 20260507053021 | 56 | 97 | 9.6 | 19.1 | 0.00 | 0.00 | 0.00 | 93 | 1011.5 |
| 20260507052515 | 55 | 124 | 10.4 | 21.7 | 0.00 | 0.00 | 0.00 | 93 | 1011.4 |
| 20260507052021 | 55 | 81 | 8.7 | 20.0 | 0.00 | 0.00 | 0.00 | 93 | 1011.4 |
| 20260507050513 | 55 | 88 | 11.3 | 19.1 | 0.00 | 0.00 | 0.00 | 94 | 1011.2 |
| 20260507050014 | 55 | 146 | 11.3 | 17.4 | 0.00 | 0.00 | 0.00 | 94 | 1011.3 |
| 20260507045021 | 55 | 29 | 10.4 | 19.1 | 0.00 | 0.00 | 0.00 | 94 | 1011.4 |
| 20260507044514 | 55 | 86 | 10.4 | 17.4 | 0.00 | 0.00 | 0.00 | 94 | 1011.6 |
| 20260507043513 | 55 | 39 | 9.6 | 20.0 | 0.00 | 0.00 | 0.00 | 94 | 1011.3 |
| 20260507043021 | 55 | 120 | 11.3 | 17.4 | 0.00 | 0.00 | 0.00 | 93 | 1011.3 |
| 20260507042021 | 55 | 115 | 10.4 | 22.6 | 0.00 | 0.00 | 0.00 | 93 | 1011.3 |
| 20260507041513 | 55 | 91 | 9.6 | 18.2 | 0.00 | 0.00 | 0.00 | 93 | 1011.4 |
| 20260507034513 | 55 | 103 | 9.6 | 17.4 | 0.00 | 0.00 | 0.00 | 92 | 1011.5 |
| 20260507034022 | 55 | 122 | 8.7 | 15.6 | 0.00 | 0.00 | 0.00 | 92 | 1011.7 |
| 20260507033514 | 55 | 97 | 6.1 | 12.2 | 0.00 | 0.00 | 0.00 | 92 | 1011.8 |
| 20260507032513 | 55 | 85 | 10.4 | 17.4 | 0.00 | 0.00 | 0.00 | 92 | 1012.0 |
| 20260507032020 | 55 | 67 | 8.7 | 15.6 | 0.00 | 0.00 | 0.00 | 92 | 1012.0 |
| 20260507024513 | 55 | 35 | 7.8 | 13.0 | 0.00 | 0.00 | 0.00 | 92 | 1012.4 |
| 20260507023019 | 55 | 85 | 7.8 | 13.0 | 0.00 | 0.00 | 0.00 | 93 | 1012.4 |
| 20260507022020 | 55 | 108 | 5.2 | 12.2 | 0.00 | 0.00 | 0.00 | 93 | 1012.4 |
| 20260507020513 | 55 | 97 | 7.8 | 12.2 | 0.00 | 0.00 | 0.00 | 93 | 1012.2 |
| 20260507015513 | 55 | 126 | 6.1 | 12.2 | 0.00 | 0.00 | 0.00 | 93 | 1012.3 |
| 20260507013021 | 55 | 87 | 5.2 | 10.4 | 0.00 | 0.00 | 0.00 | 93 | 1012.2 |
| 20260507011513 | 55 | 73 | 6.1 | 13.0 | 0.00 | 0.00 | 0.00 | 93 | 1012.0 |
| 20260507011019 | 55 | 39 | 6.1 | 12.2 | 0.00 | 0.00 | 0.00 | 93 | 1012.0 |
| 20260507010513 | 55 | 79 | 6.1 | 12.2 | 0.00 | 0.00 | 0.00 | 93 | 1012.0 |
| 20260507010013 | 55 | 82 | 7.8 | 11.3 | 0.00 | 0.00 | 0.00 | 93 | 1012.1 |
| 20260507005513 | 55 | 92 | 5.2 | 12.2 | 0.00 | 0.00 | 0.00 | 93 | 1012.2 |
| 20260507004019 | 55 | 64 | 7.0 | 12.2 | 0.00 | 0.00 | 0.00 | 92 | 1012.3 |
| 20260507003512 | 55 | 66 | 6.1 | 12.2 | 0.00 | 0.00 | 0.00 | 92 | 1012.5 |
| 20260507003021 | 55 | 80 | 7.8 | 12.2 | 0.00 | 0.00 | 0.00 | 92 | 1012.4 |
| 20260507002513 | 55 | 112 | 6.1 | 13.0 | 0.00 | 0.00 | 0.00 | 92 | 1012.5 |
| 20260507001512 | 55 | 119 | 5.2 | 10.4 | 0.00 | 0.00 | 0.00 | 92 | 1012.8 |
| 20260507001020 | 55 | 73 | 5.2 | 10.4 | 0.00 | 0.00 | 0.00 | 92 | 1013.0 |
| 20260507000513 | 56 | 89 | 3.5 | 7.0 | 0.00 | 0.00 | 0.00 | 92 | 1013.1 |
| 20260506235513 | 56 | 79 | 4.3 | 11.3 | 0.00 | 0.00 | 0.00 | 92 | 1013.1 |
| 20260506235019 | 56 | 115 | 6.1 | 13.0 | 0.00 | 0.00 | 0.00 | 92 | 1013.1 |
| 20260506234019 | 56 | 92 | 5.2 | 10.4 | 0.00 | 0.00 | 0.00 | 92 | 1013.2 |
| 20260506225514 | 56 | 123 | 6.1 | 13.0 | 0.00 | 0.00 | 0.00 | 91 | 1013.9 |
| 20260506224513 | 56 | 79 | 6.1 | 11.3 | 0.00 | 0.00 | 0.00 | 91 | 1013.8 |
| 20260506224019 | 56 | 69 | 6.1 | 11.3 | 0.00 | 0.00 | 0.00 | 91 | 1013.7 |
| 20260506223513 | 56 | 110 | 6.1 | 13.0 | 0.00 | 0.00 | 0.00 | 91 | 1013.5 |
| 20260506220513 | 56 | 108 | 6.1 | 11.3 | 0.00 | 0.00 | 0.00 | 91 | 1013.6 |
| 20260506215512 | 56 | 80 | 6.1 | 12.2 | 0.00 | 0.00 | 0.00 | 91 | 1013.7 |
| 20260506214019 | 56 | 109 | 7.0 | 11.3 | 0.00 | 0.00 | 0.00 | 91 | 1014.0 |
| 20260506213512 | 56 | 114 | 5.2 | 10.4 | 0.00 | 0.00 | 0.00 | 91 | 1014.1 |
| 20260506213019 | 56 | 80 | 5.2 | 10.4 | 0.00 | 0.00 | 0.00 | 91 | 1014.0 |
| 20260506212019 | 56 | 70 | 6.1 | 10.4 | 0.00 | 0.00 | 0.00 | 91 | 1014.1 |
| 20260506211513 | 56 | 107 | 5.2 | 11.3 | 0.00 | 0.00 | 0.00 | 91 | 1014.2 |
| 20260506204512 | 56 | 105 | 6.1 | 11.3 | 0.00 | 0.00 | 0.00 | 91 | 1013.8 |
| 20260506202513 | 56 | 110 | 5.2 | 10.4 | 0.00 | 0.00 | 0.00 | 92 | 1013.8 |
| 20260506201512 | 57 | 110 | 6.1 | 10.4 | 0.00 | 0.00 | 0.00 | 92 | 1013.6 |
| 20260506200512 | 57 | 88 | 7.0 | 12.2 | 0.00 | 0.00 | 0.00 | 92 | 1013.3 |
| 20260506200012 | 57 | 66 | 8.7 | 13.9 | 0.00 | 0.00 | 0.00 | 92 | 1013.3 |
| 20260506195513 | 57 | 106 | 5.2 | 10.4 | 0.00 | 0.00 | 0.00 | 92 | 1013.2 |
| 20260506195020 | 57 | 37 | 5.2 | 11.3 | 0.00 | 0.00 | 0.00 | 93 | 1013.1 |
| 20260506194019 | 57 | 101 | 8.7 | 17.4 | 0.00 | 0.00 | 0.00 | 92 | 1013.0 |
| 20260506193020 | 57 | 97 | 7.8 | 14.8 | 0.00 | 0.00 | 0.00 | 92 | 1012.9 |
| 20260506192021 | 57 | 55 | 8.7 | 14.8 | 0.00 | 0.00 | 0.00 | 92 | 1012.3 |
| 20260506191514 | 57 | 57 | 9.6 | 17.4 | 0.00 | 0.00 | 0.00 | 92 | 1012.3 |
| 20260506191019 | 57 | 95 | 10.4 | 19.1 | 0.00 | 0.00 | 0.00 | 92 | 1012.1 |
| 20260506185513 | 57 | 73 | 10.4 | 15.6 | 0.00 | 0.00 | 0.00 | 91 | 1011.5 |
| 20260506185019 | 58 | 72 | 8.7 | 13.0 | 0.00 | 0.00 | 0.00 | 91 | 1012.0 |
| 20260506184512 | 58 | 85 | 10.4 | 15.6 | 0.00 | 0.00 | 0.00 | 90 | 1012.2 |
| 20260506184019 | 58 | 80 | 9.6 | 14.8 | 0.00 | 0.00 | 0.00 | 90 | 1012.6 |
| 20260506183514 | 58 | 56 | 8.7 | 14.8 | 0.00 | 0.00 | 0.00 | 89 | 1012.8 |
| 20260506183020 | 58 | 56 | 7.8 | 12.2 | 0.00 | 0.00 | 0.00 | 89 | 1012.9 |
| 20260506181512 | 59 | 121 | 7.0 | 13.9 | 0.00 | 0.00 | 0.00 | 87 | 1013.2 |
| 20260506181020 | 59 | 55 | 6.1 | 13.0 | 0.00 | 0.00 | 0.00 | 87 | 1013.2 |
| 20260506175020 | 60 | 86 | 7.0 | 13.9 | 0.00 | 0.00 | 0.00 | 83 | 1013.7 |
| 20260506173020 | 61 | 37 | 6.1 | 11.3 | 0.00 | 0.00 | 0.00 | 78 | 1013.6 |
| 20260506172512 | 61 | 31 | 5.2 | 7.8 | 0.00 | 0.00 | 0.00 | 78 | 1013.7 |
| 20260506172020 | 61 | 72 | 6.1 | 10.4 | 0.00 | 0.00 | 0.00 | 77 | 1013.7 |
| 20260506171512 | 61 | 87 | 6.1 | 10.4 | 0.00 | 0.00 | 0.00 | 76 | 1013.7 |
| 20260506170512 | 62 | 98 | 6.1 | 10.4 | 0.00 | 0.00 | 0.00 | 71 | 1013.6 |
| 20260506170012 | 62 | 78 | 5.2 | 8.7 | 0.00 | 0.00 | 0.00 | 70 | 1013.5 |
| 20260506164512 | 62 | 59 | 6.1 | 10.4 | 0.00 | 0.00 | 0.00 | 65 | 1013.2 |
| 20260506164019 | 63 | 84 | 6.1 | 12.2 | 0.00 | 0.00 | 0.00 | 62 | 1013.3 |
| 20260506163512 | 63 | 45 | 6.1 | 10.4 | 0.00 | 0.00 | 0.00 | 58 | 1013.3 |
| 20260506162513 | 64 | 121 | 6.1 | 12.2 | 0.00 | 0.00 | 0.00 | 58 | 1013.3 |
| 20260506162020 | 64 | 66 | 7.8 | 13.9 | 0.00 | 0.00 | 0.00 | 56 | 1013.3 |
| 20260506161513 | 64 | 26 | 7.0 | 11.3 | 0.00 | 0.00 | 0.00 | 55 | 1013.2 |
| 20260506161020 | 65 | 56 | 7.0 | 13.0 | 0.00 | 0.00 | 0.00 | 55 | 1013.3 |
| 20260506160512 | 65 | 94 | 6.1 | 10.4 | 0.00 | 0.00 | 0.00 | 54 | 1013.4 |
| 20260506154020 | 66 | 73 | 6.1 | 10.4 | 0.00 | 0.00 | 0.00 | 52 | 1013.6 |
| 20260506152512 | 66 | 102 | 6.1 | 11.3 | 0.00 | 0.00 | 0.00 | 53 | 1013.6 |
| 20260506152020 | 67 | 108 | 5.2 | 10.4 | 0.00 | 0.00 | 0.00 | 52 | 1013.5 |
| 20260506151020 | 67 | 134 | 6.1 | 13.9 | 0.00 | 0.00 | 0.00 | 54 | 1013.6 |
| 20260506150512 | 67 | 87 | 6.1 | 12.2 | 0.00 | 0.00 | 0.00 | 55 | 1013.6 |
| 20260506145512 | 68 | 64 | 6.1 | 10.4 | 0.00 | 0.00 | 0.00 | 55 | 1013.7 |
| 20260506145020 | 68 | 102 | 6.1 | 10.4 | 0.00 | 0.00 | 0.00 | 56 | 1013.7 |
| 20260506144512 | 68 | 92 | 6.1 | 10.4 | 0.00 | 0.00 | 0.00 | 57 | 1013.6 |
| 20260506144020 | 68 | 76 | 6.1 | 12.2 | 0.00 | 0.00 | 0.00 | 57 | 1013.8 |
| 20260506142513 | 68 | 86 | 7.8 | 13.0 | 0.00 | 0.00 | 0.00 | 62 | 1013.8 |
| 20260506142019 | 69 | 93 | 6.1 | 10.4 | 0.00 | 0.00 | 0.00 | 62 | 1013.8 |
| 20260506140514 | 69 | 93 | 6.1 | 11.3 | 0.00 | 0.00 | 0.00 | 62 | 1013.8 |
| 20260506135020 | 69 | 39 | 6.1 | 8.7 | 0.00 | 0.00 | 0.00 | 62 | 1013.9 |
| 20260506134512 | 69 | 66 | 3.5 | 10.4 | 0.00 | 0.00 | 0.00 | 61 | 1013.9 |
| 20260506131020 | 69 | 58 | 4.3 | 10.4 | 0.00 | 0.00 | 0.00 | 58 | 1014.1 |
| 20260506125512 | 70 | 67 | 7.8 | 12.2 | 0.00 | 0.00 | 0.00 | 53 | 1013.9 |
| 20260506125021 | 70 | 79 | 6.1 | 10.4 | 0.00 | 0.00 | 0.00 | 55 | 1013.9 |
| 20260506124512 | 70 | 77 | 5.2 | 8.7 | 0.00 | 0.00 | 0.00 | 53 | 1013.9 |